Time,TemperatureF,DewpointF,PressureIn,WindDirection,WindDirectionDegrees,WindSpeedMPH,WindSpeedGustMPH,Humidity,HourlyPrecipIn,Conditions,Clouds,dailyrainin,SoftwareType,DateUTC
2013-06-12 00:03:00,73.0,73.0,30.05,NE,34,0.0,2.0,100,99.99,,,-99.99,,2013-06-12 04:03:00,
2013-06-12 00:13:00,73.0,73.0,30.05,NE,34,0.0,2.0,100,99.99,,,-99.99,,2013-06-12 04:13:00,
2013-06-12 00:23:00,73.0,73.0,30.06,NE,42,1.0,2.0,100,99.99,,,-99.99,,2013-06-12 04:23:00,
2013-06-12 00:33:00,73.0,73.0,30.06,North,0,0.0,0.0,100,99.99,,,-99.99,,2013-06-12 04:33:00,
2013-06-12 00:42:00,73.0,73.0,30.06,North,0,0.0,0.0,100,99.99,,,-99.99,,2013-06-12 04:42:00,
2013-06-12 00:53:00,73.0,73.0,30.06,North,0,0.0,0.0,100,99.99,,,-99.99,,2013-06-12 04:53:00,
2013-06-12 01:03:00,73.0,73.0,30.06,ENE,73,1.0,3.0,100,99.99,,,-99.99,,2013-06-12 05:03:00,
2013-06-12 01:12:00,72.0,72.0,30.06,East,89,1.0,2.0,100,99.99,,,-99.99,,2013-06-12 05:12:00,
2013-06-12 01:22:00,72.0,72.0,30.06,East,89,1.0,2.0,100,99.99,,,-99.99,,2013-06-12 05:22:00,
2013-06-12 01:32:00,72.0,72.0,30.06,North,354,0.0,1.0,100,99.99,,,-99.99,,2013-06-12 05:32:00,
2013-06-12 01:42:00,73.0,73.0,30.07,SE,143,1.0,5.0,100,99.99,,,-99.99,,2013-06-12 05:42:00,
2013-06-12 01:52:00,73.0,73.0,30.07,SE,143,1.0,5.0,100,99.99,,,-99.99,,2013-06-12 05:52:00,
2013-06-12 02:02:00,73.0,73.0,30.06,North,0,0.0,0.0,100,99.99,,,-99.99,,2013-06-12 06:02:00,
2013-06-12 02:12:00,72.0,72.0,30.06,North,0,0.0,0.0,100,99.99,,,-99.99,,2013-06-12 06:12:00,
2013-06-12 02:22:00,72.0,72.0,30.06,North,0,0.0,0.0,100,99.99,,,-99.99,,2013-06-12 06:22:00,
2013-06-12 02:32:00,72.0,72.0,30.06,South,173,1.0,3.0,100,99.99,,,-99.99,,2013-06-12 06:32:00,
2013-06-12 02:42:00,72.0,72.0,30.05,North,0,0.0,0.0,100,99.99,,,-99.99,,2013-06-12 06:42:00,
2013-06-12 02:52:00,72.0,72.0,30.05,North,0,0.0,0.0,100,99.99,,,-99.99,,2013-06-12 06:52:00,
2013-06-12 03:02:00,72.0,72.0,30.05,West,259,0.0,2.0,100,99.99,,,-99.99,,2013-06-12 07:02:00,
2013-06-12 03:12:00,72.0,72.0,30.04,North,0,0.0,0.0,100,99.99,,,-99.99,,2013-06-12 07:12:00,
2013-06-12 03:22:00,72.0,72.0,30.05,North,0,0.0,0.0,100,99.99,,,-99.99,,2013-06-12 07:22:00,
2013-06-12 03:33:00,72.0,72.0,30.04,North,0,0.0,0.0,100,99.99,,,-99.99,,2013-06-12 07:33:00,
2013-06-12 03:43:00,72.0,72.0,30.03,North,0,0.0,0.0,100,99.99,,,-99.99,,2013-06-12 07:43:00,
2013-06-12 03:53:00,72.0,72.0,30.04,North,0,0.0,0.0,100,99.99,,,-99.99,,2013-06-12 07:53:00,
2013-06-12 04:02:00,71.0,71.0,30.04,North,0,0.0,0.0,100,99.99,,,-99.99,,2013-06-12 08:02:00,
2013-06-12 04:12:00,71.0,71.0,30.04,North,0,0.0,0.0,100,99.99,,,-99.99,,2013-06-12 08:12:00,
2013-06-12 04:22:00,71.0,71.0,30.03,North,0,0.0,0.0,100,99.99,,,-99.99,,2013-06-12 08:22:00,
2013-06-12 04:33:00,71.0,71.0,30.03,North,0,0.0,0.0,100,99.99,,,-99.99,,2013-06-12 08:33:00,
2013-06-12 04:43:00,70.0,70.0,30.04,NE,38,1.0,2.0,100,99.99,,,-99.99,,2013-06-12 08:43:00,
2013-06-12 04:53:00,70.0,70.0,30.04,NE,38,0.0,1.0,100,99.99,,,-99.99,,2013-06-12 08:53:00,
2013-06-12 05:01:00,70.0,70.0,30.04,North,0,0.0,0.0,100,99.99,,,-99.99,,2013-06-12 09:01:00,
2013-06-12 05:11:00,70.0,70.0,30.04,North,0,0.0,0.0,100,99.99,,,-99.99,,2013-06-12 09:11:00,
2013-06-12 05:22:00,70.0,70.0,30.04,North,0,0.0,0.0,100,99.99,,,-99.99,,2013-06-12 09:22:00,
2013-06-12 05:33:00,71.0,71.0,30.04,North,0,0.0,0.0,100,99.99,,,-99.99,,2013-06-12 09:33:00,
2013-06-12 05:42:00,70.0,70.0,30.04,North,0,0.0,0.0,100,99.99,,,-99.99,,2013-06-12 09:42:00,
2013-06-12 05:53:00,70.0,70.0,30.05,North,0,0.0,0.0,100,99.99,,,-99.99,,2013-06-12 09:53:00,
2013-06-12 06:02:00,70.0,70.0,30.05,North,0,0.0,0.0,100,99.99,,,-99.99,,2013-06-12 10:02:00,
2013-06-12 06:11:00,71.0,71.0,30.05,North,0,0.0,0.0,100,99.99,,,-99.99,,2013-06-12 10:11:00,
2013-06-12 06:23:00,70.0,70.0,30.06,North,0,0.0,0.0,100,99.99,,,-99.99,,2013-06-12 10:23:00,
2013-06-12 06:33:00,71.0,71.0,30.06,North,0,0.0,0.0,100,99.99,,,-99.99,,2013-06-12 10:33:00,
2013-06-12 06:43:00,70.0,70.0,30.06,North,0,0.0,0.0,100,99.99,,,-99.99,,2013-06-12 10:43:00,
2013-06-12 06:53:00,70.0,70.0,30.06,West,274,0.0,1.0,100,99.99,,,-99.99,,2013-06-12 10:53:00,
2013-06-12 07:02:00,71.0,71.0,30.06,North,0,0.0,0.0,100,99.99,,,-99.99,,2013-06-12 11:02:00,
2013-06-12 07:12:00,71.0,71.0,30.06,North,0,0.0,0.0,100,99.99,,,-99.99,,2013-06-12 11:12:00,
2013-06-12 07:24:00,71.0,71.0,30.07,North,0,0.0,0.0,100,99.99,,,-99.99,,2013-06-12 11:24:00,
2013-06-12 07:33:00,72.0,72.0,30.07,North,0,0.0,0.0,100,99.99,,,-99.99,,2013-06-12 11:33:00,
2013-06-12 07:43:00,73.0,73.0,30.07,North,0,0.0,0.0,100,99.99,,,-99.99,,2013-06-12 11:43:00,
2013-06-12 07:53:00,73.0,73.0,30.07,North,0,0.0,0.0,100,99.99,,,-99.99,,2013-06-12 11:53:00,
2013-06-12 08:02:00,74.0,74.0,30.07,North,0,0.0,0.0,100,99.99,,,-99.99,,2013-06-12 12:02:00,
2013-06-12 08:11:00,75.0,75.0,30.07,East,84,2.0,3.0,100,99.99,,,-99.99,,2013-06-12 12:11:00,
2013-06-12 08:23:00,76.0,76.0,30.08,ENE,76,2.0,2.0,100,99.99,,,-99.99,,2013-06-12 12:23:00,
2013-06-12 08:33:00,76.0,76.0,30.07,East,89,2.0,3.0,100,99.99,,,-99.99,,2013-06-12 12:33:00,
2013-06-12 08:42:00,78.0,78.0,30.08,ENE,69,5.0,6.0,100,99.99,,,-99.99,,2013-06-12 12:42:00,
2013-06-12 08:53:00,78.0,78.0,30.08,East,80,3.0,5.0,99,99.99,,,-99.99,,2013-06-12 12:53:00,
2013-06-12 09:01:00,78.0,77.0,30.08,ENE,59,4.0,6.0,96,99.99,,,-99.99,,2013-06-12 13:01:00,
2013-06-12 09:12:00,79.0,76.0,30.08,ENE,69,4.0,6.0,91,99.99,,,-99.99,,2013-06-12 13:12:00,
2013-06-12 09:22:00,80.0,77.0,30.08,ENE,58,4.0,6.0,90,99.99,,,-99.99,,2013-06-12 13:22:00,
2013-06-12 09:33:00,80.0,76.0,30.09,ENE,66,3.0,5.0,88,99.99,,,-99.99,,2013-06-12 13:33:00,
2013-06-12 09:43:00,81.0,77.0,30.08,ESE,104,3.0,6.0,87,99.99,,,-99.99,,2013-06-12 13:43:00,
2013-06-12 09:53:00,82.0,76.0,30.08,ESE,114,3.0,5.0,83,99.99,,,-99.99,,2013-06-12 13:53:00,
2013-06-12 10:02:00,82.0,76.0,30.08,East,98,3.0,5.0,82,99.99,,,-99.99,,2013-06-12 14:02:00,
2013-06-12 10:11:00,83.0,76.0,30.08,ENE,68,2.0,3.0,80,99.99,,,-99.99,,2013-06-12 14:11:00,
2013-06-12 10:24:00,84.0,76.0,30.08,SE,124,1.0,4.0,78,99.99,,,-99.99,,2013-06-12 14:24:00,
2013-06-12 10:33:00,85.0,73.0,30.08,NNE,17,3.0,7.0,67,99.99,,,-99.99,,2013-06-12 14:33:00,
2013-06-12 10:43:00,85.0,72.0,30.08,NNE,24,4.0,6.0,65,99.99,,,-99.99,,2013-06-12 14:43:00,
2013-06-12 10:53:00,85.0,72.0,30.08,North,0,2.0,5.0,65,99.99,,,-99.99,,2013-06-12 14:53:00,
2013-06-12 11:01:00,84.0,70.0,30.08,NNE,21,4.0,8.0,64,99.99,,,-99.99,,2013-06-12 15:01:00,
2013-06-12 11:12:00,85.0,71.0,30.08,NNE,18,2.0,5.0,64,99.99,,,-99.99,,2013-06-12 15:12:00,
2013-06-12 11:23:00,86.0,72.0,30.08,ENE,58,3.0,6.0,63,99.99,,,-99.99,,2013-06-12 15:23:00,
2013-06-12 11:33:00,86.0,69.0,30.08,ESE,104,4.0,6.0,58,99.99,,,-99.99,,2013-06-12 15:33:00,
2013-06-12 11:43:00,86.0,68.0,30.07,NE,37,2.0,5.0,56,99.99,,,-99.99,,2013-06-12 15:43:00,
2013-06-12 11:52:00,87.0,69.0,30.07,West,262,4.0,8.0,55,99.99,,,-99.99,,2013-06-12 15:52:00,
2013-06-12 12:02:00,88.0,69.0,30.07,NW,305,1.0,5.0,53,99.99,,,-99.99,,2013-06-12 16:02:00,
2013-06-12 12:12:00,88.0,68.0,30.07,NNW,332,4.0,8.0,51,99.99,,,-99.99,,2013-06-12 16:12:00,
2013-06-12 12:22:00,89.0,68.0,30.07,NNW,333,3.0,6.0,51,99.99,,,-99.99,,2013-06-12 16:22:00,
2013-06-12 12:32:00,90.0,66.0,30.06,NNW,339,3.0,7.0,46,99.99,,,-99.99,,2013-06-12 16:32:00,
2013-06-12 12:43:00,89.0,65.0,30.06,ENE,69,3.0,5.0,45,99.99,,,-99.99,,2013-06-12 16:43:00,
2013-06-12 12:52:00,89.0,65.0,30.06,ENE,69,3.0,5.0,45,99.99,,,-99.99,,2013-06-12 16:52:00,
2013-06-12 13:01:00,89.0,64.0,30.06,NE,52,3.0,6.0,44,99.99,,,-99.99,,2013-06-12 17:01:00,
2013-06-12 13:12:00,89.0,65.0,30.05,East,86,4.0,8.0,45,99.99,,,-99.99,,2013-06-12 17:12:00,
2013-06-12 13:23:00,89.0,66.0,30.05,SE,143,2.0,4.0,47,99.99,,,-99.99,,2013-06-12 17:23:00,
2013-06-12 13:33:00,89.0,65.0,30.05,ESE,110,4.0,7.0,46,99.99,,,-99.99,,2013-06-12 17:33:00,
2013-06-12 13:42:00,89.0,65.0,30.05,NE,56,5.0,7.0,46,99.99,,,-99.99,,2013-06-12 17:42:00,
2013-06-12 13:52:00,89.0,65.0,30.05,ESE,111,5.0,9.0,45,99.99,,,-99.99,,2013-06-12 17:52:00,
2013-06-12 14:02:00,89.0,65.0,30.05,ENE,70,3.0,6.0,46,99.99,,,-99.99,,2013-06-12 18:02:00,
2013-06-12 14:12:00,90.0,64.0,30.04,NNE,27,2.0,6.0,43,99.99,,,-99.99,,2013-06-12 18:12:00,
2013-06-12 14:22:00,91.0,65.0,30.04,NNE,27,4.0,9.0,43,99.99,,,-99.99,,2013-06-12 18:22:00,
2013-06-12 14:33:00,90.0,64.0,30.04,NE,49,3.0,8.0,43,99.99,,,-99.99,,2013-06-12 18:33:00,
2013-06-12 14:43:00,90.0,64.0,30.03,NNE,24,4.0,7.0,42,99.99,,,-99.99,,2013-06-12 18:43:00,
2013-06-12 14:53:00,90.0,64.0,30.03,NE,51,3.0,7.0,43,99.99,,,-99.99,,2013-06-12 18:53:00,
2013-06-12 15:01:00,91.0,65.0,30.02,North,359,1.0,3.0,42,99.99,,,-99.99,,2013-06-12 19:01:00,
2013-06-12 15:11:00,91.0,65.0,30.01,East,98,4.0,9.0,43,99.99,,,-99.99,,2013-06-12 19:11:00,
2013-06-12 15:22:00,91.0,65.0,30.01,SSE,162,3.0,6.0,42,99.99,,,-99.99,,2013-06-12 19:22:00,
2013-06-12 15:32:00,90.0,64.0,30.01,NNE,31,2.0,4.0,43,99.99,,,-99.99,,2013-06-12 19:32:00,
2013-06-12 15:42:00,90.0,66.0,30.02,East,93,3.0,8.0,45,99.99,,,-99.99,,2013-06-12 19:42:00,
2013-06-12 15:52:00,90.0,65.0,30.02,NNE,31,3.0,8.0,44,99.99,,,-99.99,,2013-06-12 19:52:00,
2013-06-12 16:01:00,90.0,64.0,30.02,North,0,0.0,0.0,43,99.99,,,-99.99,,2013-06-12 20:01:00,
2013-06-12 16:11:00,90.0,65.0,30.02,East,101,3.0,4.0,44,99.99,,,-99.99,,2013-06-12 20:11:00,
2013-06-12 16:22:00,90.0,64.0,30.01,South,179,0.0,3.0,43,99.99,,,-99.99,,2013-06-12 20:22:00,
2013-06-12 16:32:00,90.0,66.0,30.01,SSE,159,1.0,3.0,45,99.99,,,-99.99,,2013-06-12 20:32:00,
2013-06-12 16:42:00,90.0,64.0,30.01,SSE,162,0.0,2.0,43,99.99,,,-99.99,,2013-06-12 20:42:00,
2013-06-12 16:54:00,91.0,63.0,30.01,North,0,0.0,0.0,40,99.99,,,-99.99,,2013-06-12 20:54:00,
2013-06-12 17:01:00,92.0,64.0,30.01,NNW,332,1.0,2.0,40,99.99,,,-99.99,,2013-06-12 21:01:00,
2013-06-12 17:11:00,93.0,62.0,30.00,ESE,114,1.0,3.0,36,99.99,,,-99.99,,2013-06-12 21:11:00,
2013-06-12 17:22:00,92.0,62.0,30.00,ESE,107,1.0,4.0,37,99.99,,,-99.99,,2013-06-12 21:22:00,
2013-06-12 17:33:00,92.0,62.0,29.99,NNE,21,3.0,5.0,37,99.99,,,-99.99,,2013-06-12 21:33:00,
2013-06-12 17:53:00,92.0,-99.9,30.05,NE,42,0.0,2.0,0,99.99,,,-99.99,,2013-06-12 21:53:00,
2013-06-12 18:01:00,92.0,61.0,30.00,East,83,0.0,1.0,36,99.99,,,-99.99,,2013-06-12 22:01:00,
2013-06-12 18:11:00,93.0,60.0,29.99,WSW,240,1.0,3.0,34,99.99,,,-99.99,,2013-06-12 22:11:00,
2013-06-12 18:22:00,92.0,62.0,29.99,North,0,0.0,0.0,37,99.99,,,-99.99,,2013-06-12 22:22:00,
2013-06-12 18:32:00,91.0,60.0,30.00,North,0,0.0,0.0,36,99.99,,,-99.99,,2013-06-12 22:32:00,
2013-06-12 18:43:00,90.0,62.0,30.01,WNW,283,1.0,3.0,39,99.99,,,-99.99,,2013-06-12 22:43:00,
2013-06-12 18:52:00,89.0,64.0,30.01,NNW,347,7.0,14.0,44,99.99,,,-99.99,,2013-06-12 22:52:00,
2013-06-12 19:02:00,88.0,63.0,30.01,NW,311,8.0,14.0,43,99.99,,,-99.99,,2013-06-12 23:02:00,
2013-06-12 19:22:00,85.0,64.0,30.01,SSE,156,5.0,13.0,49,99.99,,,-99.99,,2013-06-12 23:22:00,
2013-06-12 19:53:00,82.0,-99.9,30.07,West,267,5.0,10.0,0,99.99,,,-99.99,,2013-06-12 23:53:00,
2013-06-12 20:01:00,82.0,68.0,30.06,WSW,250,2.0,8.0,62,99.99,,,-99.99,,2013-06-13 00:01:00,
2013-06-12 20:12:00,81.0,68.0,30.03,WSW,243,4.0,9.0,64,99.99,,,-99.99,,2013-06-13 00:12:00,
2013-06-12 20:22:00,81.0,69.0,30.03,SSW,210,2.0,5.0,66,99.99,,,-99.99,,2013-06-13 00:22:00,
2013-06-12 20:32:00,81.0,69.0,30.03,SW,229,2.0,5.0,68,99.99,,,-99.99,,2013-06-13 00:32:00,
2013-06-12 20:42:00,80.0,69.0,30.03,SSW,197,1.0,3.0,70,99.99,,,-99.99,,2013-06-13 00:42:00,
2013-06-12 20:52:00,80.0,70.0,30.02,South,174,2.0,4.0,71,99.99,,,-99.99,,2013-06-13 00:52:00,
2013-06-12 21:01:00,79.0,70.0,30.02,SSW,194,2.0,4.0,73,99.99,,,-99.99,,2013-06-13 01:01:00,
2013-06-12 21:12:00,79.0,70.0,30.02,South,181,2.0,5.0,74,99.99,,,-99.99,,2013-06-13 01:12:00,
2013-06-12 21:22:00,79.0,71.0,30.01,SE,141,1.0,3.0,76,99.99,,,-99.99,,2013-06-13 01:22:00,
2013-06-12 21:32:00,78.0,70.0,30.02,SSW,198,1.0,2.0,76,99.99,,,-99.99,,2013-06-13 01:32:00,
2013-06-12 21:43:00,78.0,71.0,30.02,South,170,0.0,2.0,78,99.99,,,-99.99,,2013-06-13 01:43:00,
2013-06-12 21:53:00,78.0,71.0,30.03,SSE,162,2.0,4.0,79,99.99,,,-99.99,,2013-06-13 01:53:00,
2013-06-12 22:02:00,78.0,72.0,30.03,North,0,0.0,0.0,81,99.99,,,-99.99,,2013-06-13 02:02:00,
2013-06-12 22:12:00,77.0,71.0,30.03,South,169,1.0,3.0,83,99.99,,,-99.99,,2013-06-13 02:12:00,
2013-06-12 22:22:00,77.0,71.0,30.03,SE,136,1.0,3.0,83,99.99,,,-99.99,,2013-06-13 02:22:00,
2013-06-12 22:33:00,77.0,72.0,30.03,South,191,1.0,3.0,84,99.99,,,-99.99,,2013-06-13 02:33:00,
2013-06-12 22:43:00,77.0,72.0,30.03,WSW,238,2.0,4.0,84,99.99,,,-99.99,,2013-06-13 02:43:00,
2013-06-12 22:52:00,76.0,72.0,30.03,SSE,159,1.0,3.0,86,99.99,,,-99.99,,2013-06-13 02:52:00,
2013-06-12 23:02:00,76.0,71.0,30.03,West,267,1.0,2.0,85,99.99,,,-99.99,,2013-06-13 03:02:00,
2013-06-12 23:12:00,76.0,72.0,30.03,WSW,242,1.0,3.0,86,99.99,,,-99.99,,2013-06-13 03:12:00,
2013-06-12 23:22:00,76.0,72.0,30.03,West,270,2.0,5.0,86,99.99,,,-99.99,,2013-06-13 03:22:00,
2013-06-12 23:33:00,76.0,70.0,30.04,West,263,3.0,5.0,81,99.99,,,-99.99,,2013-06-13 03:33:00,
2013-06-12 23:42:00,76.0,73.0,30.04,NW,321,2.0,3.0,89,99.99,,,-99.99,,2013-06-13 03:42:00,
2013-06-12 23:52:00,76.0,73.0,30.04,SSW,195,0.0,2.0,90,99.99,,,-99.99,,2013-06-13 03:52:00,